Regional Weather Roundup
Issued by NWS

Home | Current Version | Previous Version | Graphics & Text | Print | Product List | Glossary On
Versions: 1 2 3 4 5 6 7 8 9 10 11 12 13 14 15 16 17 18 19 20 21 22 23 24 25 26 27 28 29 30 31 32 33 34 35 36 37 38 39 40 41 42 43 44 45 46 47 48 49 50
000
ASUS45 KBOU 182307
RWRCO

WEATHER ROUNDUP FOR COLORADO
NATIONAL WEATHER SERVICE DENVER/BOULDER CO
400 PM MST THU DEC 18 2014

NOTE: "FAIR" INDICATES FEW OR NO CLOUDS BELOW 12000 FEET WITH NO
SIGNIFICANT WEATHER AND/OR OBSTRUCTIONS TO VISIBILITY.

COZ001>005-013-030-031-190000-
...NORTHWEST COLORADO...

CITY           SKY/WX    TMP DP  RH WIND       PRES   REMARKS
CRAIG          CLEAR     23  20  88 S3        30.12R
HAYDEN         CLEAR     27  21  80 CALM      30.11R
MEEKER         PTCLDY    31  24  75 CALM      30.11R
MOUNT WERNER   NOT AVBL
STEAMBOAT SPGS MOCLDY    28  23  82 SW3       30.10R
WALDEN         MOCLDY    14  12  92 CALM      30.06S
$$

COZ006>008-011-190000-
...WEST CENTRAL VALLEYS...

CITY           SKY/WX    TMP DP  RH WIND       PRES   REMARKS
GRAND JUNCTION CLOUDY    38  29  70 NW5       30.12R
MONTROSE       CLOUDY    36  31  82 N6        30.13R
EAGLE          MOCLDY    34  28  80 W8        30.10R WCI  27
RIFLE          CLOUDY    37  31  78 SW6       30.11R
DELTA          CLOUDY    41  34  74 CALM      30.11S
NUCLA          LGT SNOW  32  32 100 CALM      30.16R VSB 1
$$

COZ017>023-064>068-190000-
...SOUTHWEST COLORADO...

CITY           SKY/WX    TMP DP  RH WIND       PRES   REMARKS
DURANGO        MOCLDY    35  27  72 CALM      30.08S
CORTEZ         MOCLDY    37  30  75 NE6       30.11S
PAGOSA SPRINGS MOCLDY    32  22  66 CALM      30.08S
TELLURIDE      CLOUDY    25  22  88 SW8       30.09R WCI  16
WOLF CREEK PAS LGT SNOW  12  12 100 MISG      30.04S
$$

COZ009-010-012-014-032>034-037-058>063-190000-
...CENTRAL COLORADO...

CITY           SKY/WX    TMP DP  RH WIND       PRES   REMARKS
ASPEN          MOCLDY    30  21  69 E3        30.07R
BUENA VISTA    CLOUDY    34  16  47 SW9       30.02R WCI  27
COPPER MTN     LGT SNOW  19  12  73 W16       30.03S WCI   5
BERTHOUD PASS  CLOUDY     9   3  78 MISG      30.03S
COTTONWOOD PAS CLOUDY    30  19  64 E3        30.03R
GUNNISON       PTCLDY    28  21  74 N9        30.09S WCI  20
KREMMLING      PTCLDY    25  21  86 CALM      30.10S
LEADVILLE      CLOUDY    22  13  68 N10       30.02R WCI  11
MONARCH PASS   CLOUDY    14  12  92 MISG      30.13R
SALIDA         CLOUDY    37  18  46 S15G21    30.09S
SUNLIGHT       SNOW     N/A N/A N/A CALM      30.08R VSB 1/2
WILKERSON PASS PTCLDY    23  12  63 CALM      30.05R
$$

COZ069>075-190000-
...SAN LUIS VALLEY/SANGRE DE CRISTO MOUNTAINS...

CITY           SKY/WX    TMP DP  RH WIND       PRES   REMARKS
ALAMOSA        CLOUDY    29  21  72 SE5       30.06F WCI  24
LA VETA PASS   MOCLDY    19  16  86 MISG      30.02R
SAGUACHE       PTCLDY    32  23  69 S5        30.07S WCI  27
$$

COZ035-036-038>040-190000-
...NORTHERN COLORADO FRONT RANGE...

CITY           SKY/WX    TMP DP  RH WIND       PRES   REMARKS
DENVER INTL AP PTCLDY    40  30  67 NE10      30.01R
DMNS CITY PARK   N/A     40  25  55 N3        30.01R
AURORA         PTCLDY    40  28  60 N5        30.02R
FRONT RANGE AP NOT AVBL
ERIE MUNI ARPT   N/A     40  24  52 N3        30.02R
BOULDER MUN AP MOCLDY    41  25  52 CALM      30.02R
CENTENNIAL     PTCLDY    40  27  59 N9        30.00R
BROOMFIELD     MOCLDY    41  25  52 VRB3      30.02R
FORT COLLINS   PTCLDY    39  25  56 E5        30.04R
LONGMONT       CLOUDY    42  26  53 CALM      30.05R
$$

COZ041-046-047-076>085-087-088-190000-
...PIKES PEAK/PALMER DIVIDE AND SOUTHERN FOOTHILLS...

CITY           SKY/WX    TMP DP  RH WIND       PRES   REMARKS
COLO. SPRINGS  MOCLDY    39  27  62 SE9       30.02R
A. F. ACADEMY  MOCLDY    37  27  65 SE10      30.01R
ELLICOTT       NOT AVBL
FALCON         NOT AVBL
FORT CARSON    PTCLDY    41  27  58 SE10      30.01R
LIMON          CLEAR     40  21  46 S8        30.02R
MONUMENT HILL  CLEAR     32  27  80 S7        30.00R WCI  26
TRINIDAD       PTCLDY    42  25  50 E6        30.00R
$$

COZ042>045-048>051-090-091-190000-
...NORTHEAST COLORADO...

CITY           SKY/WX    TMP DP  RH WIND       PRES   REMARKS
GREELEY ARPT   PTCLDY    43  25  49 SE5       30.02R
AKRON          MOCLDY    36  26  67 CALM      30.03S
BURLINGTON     CLEAR     41  24  51 CALM      30.06R
WRAY           MOCLDY    31  28  87 CALM      30.06S
STERLING       MOCLDY    32  27  80 CALM      30.04S
HOLYOKE        NOT AVBL
FORT MORGAN    MOCLDY    32  23  70 N5        30.04S WCI  27
$$

COZ086-089-092>099-190000-
...SOUTHEAST COLORADO...

CITY           SKY/WX    TMP DP  RH WIND       PRES   REMARKS
PUEBLO         CLOUDY    43  30  60 E14       30.01
LA JUNTA       CLEAR     41  30  65 E7        30.04R
LAMAR          CLEAR     44  29  55 E3        30.05R
SPRINGFIELD      N/A     38  30  73 E7        30.05R
$$



USA.gov is the U.S. government's official web portal to all federal, state and local government web resources and services.